{"data":{"norad_id":63470,"epoch":"2026-09-20T14:54:30.588768Z","epoch_age_seconds":145249,"freshness":"FRESH","line1":"1 63470U 25070L   26263.62118737  .00012472  00000+0  46178-3 0  9992","line2":"2 63470  42.9994 239.3641 0001019 270.8420  89.2315 15.27593620 82784","mean_motion":15.2759362,"eccentricity":0.0001019,"inclination_deg":42.9994,"raan_deg":239.3641,"arg_perigee_deg":270.842,"mean_anomaly_deg":89.2315,"bstar":0.00046178,"rev_number":8278,"period_min":94.265908232845,"perigee_km":482.30916245549,"apogee_km":483.70746387031,"semimajor_km":6861.1453131629,"source":"CELESTRAK","updated_at":"2026-09-21T09:00:35.009248Z"}}